Regional Weather Roundup
Issued by NWS

Home | Current Version | Previous Version | Graphics & Text | Print | Product List | Glossary On
Versions: 1 2 3 4 5 6 7 8 9 10 11 12 13 14 15 16 17 18 19 20 21 22 23 24 25 26 27 28 29 30 31 32 33 34 35 36 37 38 39 40 41 42 43 44 45 46 47 48 49 50
000
ASUS43 KLSX 182107
RWRMO

WEATHER SUMMARY FOR MISSOURI
NATIONAL WEATHER SERVICE SPRINGFIELD MO
400 PM CDT SAT APR 18 2015

NOTE: "FAIR" INDICATES FEW OR NO CLOUDS BELOW 12,000 FEET WITH NO
       SIGNIFICANT WEATHER AND/OR OBSTRUCTIONS TO VISIBILITY.
       CURRENT SKY AND/OR WEATHER CONDITIONS ARE NOT AVAILABLE FOR
       CHILLICOTHE AND FARMINGTON.

MOZ001>031-035>038-043-044-053-054-182200-
...NORTHERN AND WESTERN MISSOURI...

CITY           SKY/WX    TMP DP  RH WIND       PRES   REMARKS
KANSAS CTY INT LGT RAIN  62  59  90 SE7       29.88F
KANSAS C DTWN  LGT RAIN  64  58  80 E7        29.87F
LEE`S SUMMIT   LGT RAIN  62  59  90 SE6       29.89F
ST JOSEPH      LGT RAIN  63  58  83 S5        29.89F
CHILLICOTHE      N/A     64  60  87 S9        29.94R
KIRKSVILLE     TSTM      62  58  86 SW15G36   29.90R FOG

$$
MOZ066>068-077>081-088>096-101>105-182200-
...SOUTHWEST MISSOURI...

CITY           SKY/WX    TMP DP  RH WIND       PRES   REMARKS
SPRINGFIELD    CLOUDY    66  57  72 NE8       29.89F
JOPLIN         PTSUNNY   68  59  73 E8        29.87F

$$
MOZ032>034-039>042-045>050-055>058-069>072-182200-
...CENTRAL MISSOURI...

CITY           SKY/WX    TMP DP  RH WIND       PRES   REMARKS
COLUMBIA       CLOUDY    67  58  72 W15       29.92S
JEFFERSON CITY LGT RAIN  66  59  78 NW8       29.91R
ROLLA          LGT RAIN  74  56  53 SW8       29.89F
SEDALIA        LGT RAIN  64  59  83 N6        29.92F
WHITEMAN AFB   CLOUDY    63  60  90 VRB1      29.90F
WARRENSBURG    CLOUDY    63  57  82 CALM      29.91F
OSAGE BEACH    CLOUDY    63  59  88 CALM      29.92F

$$
MOZ051-052-059>065-182200-
...EAST CENTRAL MISSOURI...

CITY           SKY/WX    TMP DP  RH WIND       PRES   REMARKS
ST LOUIS INTL  CLOUDY    76  58  53 SE9       29.91F
SPIRIT OF STL  CLOUDY    76  59  55 E9        29.89F
ST CHARLES     CLOUDY    78  59  51 SE13      29.89F

$$
MOZ072>076-082>087-097>100-106>115-182200-
...SOUTH CENTRAL AND SOUTHEAST MISSOURI...

CITY           SKY/WX    TMP DP  RH WIND       PRES   REMARKS
CAPE GIRARDEAU PTSUNNY   78  57  48 VRB5      29.88F
FARMINGTON     PTSUNNY   75  57  53 E6        29.94F
POPLAR BLUFF   CLOUDY    75  60  59 S6        29.87F
WEST PLAINS    CLOUDY    73  55  53 SE6       29.90F

$$


USA.gov is the U.S. government's official web portal to all federal, state and local government web resources and services.